Gaylord, MI

11:37 AM EST on January 19, 2017 (GMT -0500)
Otsego County

Weather History for KGLR - October, 2012

Change the Weather History Date:

Saturday, October 27, 2012

  Actual Average Record
Temperature  
Mean Temperature 35 °F -  
Max Temperature 44 °F 53 °F 74 °F (1955)
Min Temperature 27 °F 35 °F 20 °F (1983)
Degree Days  
Heating Degree Days 30    
Moisture  
Dew Point 27 °F    
Average Humidity 68    
Maximum Humidity 92    
Minimum Humidity 47    
Precipitation  
Precipitation 0.00 in - - ()
Sea Level Pressure  
Sea Level Pressure 30.29 in    
Wind  
Wind Speed 2 mph (NNW)    
Max Wind Speed 8 mph    
Max Gust Speed -    
Visibility 10 miles    
Events      
Averages and records for this station are not official NWS values.
T = Trace of Precipitation, MM = Missing Value Source: NWS Daily Summary

Daily Weather History Graph

Daily Weather History Graph

Search for Another Location

Airport or City:

Trip Planner

Search our weather history database for the weather conditions in past years. The results will help you decide how hot, cold, wet, or windy it might be!

Date:

Astronomy

Oct. 27, 2012 Rise Set
Actual Time 8:11 AM EDT 6:33 PM EDT
Civil Twilight 7:40 AM EDT 7:03 PM EDT
Nautical Twilight 7:06 AM EDT 7:38 PM EDT
Astronomical Twilight 6:32 AM EDT 8:12 PM EDT
Moon 5:21 PM EDT (10/27) 6:01 AM EDT (10/27)
Length of Visible Light 11h 22m
Length of Day
10h 22m
Waxing Gibbous, 96% of the Moon is Illuminated
Oct 27
Waxing Gibbous
Oct 29
Full
Nov 6
Last Quarter
Nov 13
New
Nov 20
First Quarter

Hourly Weather History & Observations

Time (EDT) Temp. Windchill Dew Point Humidity Pressure Visibility Wind Dir Wind Speed Gust Speed Precip Events Conditions
12:53 AM 35.1 °F - 30.0 °F 82% 30.29 in 10.0 mi Calm Calm - N/A   Mostly Cloudy
1:53 AM 37.0 °F - 30.0 °F 76% 30.28 in 10.0 mi Calm Calm - N/A   Overcast
2:53 AM 37.0 °F - 30.0 °F 76% 30.27 in 10.0 mi Calm Calm - N/A   Overcast
3:53 AM 37.0 °F - 28.9 °F 73% 30.27 in 10.0 mi Calm Calm - N/A   Mostly Cloudy
4:53 AM 36.0 °F 31.1 °F 28.0 °F 73% 30.27 in 10.0 mi NE 5.8 mph - N/A   Mostly Cloudy
5:53 AM 33.1 °F - 28.0 °F 82% 30.28 in 10.0 mi Calm Calm - N/A   Clear
6:53 AM 30.0 °F - 27.0 °F 88% 30.30 in 10.0 mi Calm Calm - N/A   Clear
7:53 AM 27.0 °F - 25.0 °F 92% 30.31 in 10.0 mi Calm Calm - N/A   Partly Cloudy
8:53 AM 30.0 °F - 28.0 °F 92% 30.32 in 10.0 mi Calm Calm - N/A   Mostly Cloudy
9:53 AM 33.1 °F - 30.9 °F 92% 30.32 in 10.0 mi Calm Calm - N/A   Mostly Cloudy
10:53 AM 39.0 °F 35.7 °F 27.0 °F 62% 30.31 in 10.0 mi NE 4.6 mph - N/A   Partly Cloudy
11:53 AM 42.1 °F - 27.0 °F 55% 30.30 in 10.0 mi Calm Calm - N/A   Overcast
12:53 PM 41.0 °F 38.0 °F 26.1 °F 55% 30.29 in 10.0 mi Variable 4.6 mph - N/A   Overcast
1:53 PM 42.1 °F 38.4 °F 25.0 °F 51% 30.27 in 10.0 mi NNW 5.8 mph - N/A   Overcast
2:53 PM 43.0 °F 38.8 °F 24.1 °F 47% 30.25 in 10.0 mi WNW 6.9 mph - N/A   Mostly Cloudy
3:53 PM 42.1 °F 37.1 °F 24.1 °F 49% 30.25 in 10.0 mi West 8.1 mph - N/A   Overcast
4:53 PM 42.1 °F 38.4 °F 26.1 °F 53% 30.26 in 10.0 mi Variable 5.8 mph - N/A   Overcast
5:53 PM 39.9 °F 36.7 °F 28.0 °F 63% 30.27 in 10.0 mi Variable 4.6 mph - N/A   Overcast
6:53 PM 39.0 °F 35.7 °F 27.0 °F 62% 30.30 in 10.0 mi Variable 4.6 mph - N/A   Overcast
7:53 PM 37.9 °F 35.5 °F 26.1 °F 62% 30.31 in 10.0 mi North 3.5 mph - N/A   Overcast
8:53 PM 37.0 °F 33.3 °F 25.0 °F 62% 30.30 in 10.0 mi North 4.6 mph - N/A   Overcast
9:53 PM 37.0 °F - 25.0 °F 62% 30.30 in 10.0 mi Calm Calm - N/A   Overcast
10:53 PM 36.0 °F - 25.0 °F 64% 30.31 in 10.0 mi Calm Calm - N/A   Overcast
11:53 PM 36.0 °F 33.3 °F 25.0 °F 64% 30.30 in 10.0 mi NW 3.5 mph - N/A   Overcast